GW5170 Weather Reports


time (UTC)temp
C
wind
direction
speed
KPH
gust
KPH
rain 1hr
cm
rain 24hr
cm
rain mn
cm
humidity
%
barometer
mb
20260504040636 13 307 0.0 1.6 0.00 0.03 0.03 52 1007.2
20260504040132 13 326 1.6 1.6 0.00 0.03 0.03 53 1007.2
20260504035629 13 317 0.0 0.0 0.00 0.03 0.03 53 1007.3
20260504035125 14 346 0.0 0.0 0.00 0.03 0.03 52 1007.3
20260504034624 15 320 0.0 0.0 0.00 0.03 0.03 50 1007.2
20260504034120 15 330 0.0 0.0 0.00 0.03 0.03 47 1007.4
20260504033618 16 319 0.0 0.0 0.00 0.03 0.03 44 1007.3
20260504033115 16 313 0.0 1.6 0.00 0.03 0.03 44 1007.4
20260504032612 16 333 1.6 1.6 0.00 0.03 0.03 46 1007.3
20260504032109 16 316 0.0 0.0 0.00 0.03 0.03 44 1007.2
20260504031606 16 313 3.2 3.2 0.00 0.03 0.03 42 1007.4
20260504031102 16 325 1.6 1.6 0.00 0.03 0.03 44 1007.4
20260504030559 17 316 0.0 0.0 0.00 0.03 0.03 41 1007.4
20260504030055 17 313 1.6 3.2 0.00 0.03 0.03 40 1007.4
20260504025553 17 315 1.6 1.6 0.00 0.03 0.03 38 1007.3
20260504025049 18 293 1.6 1.6 0.00 0.03 0.03 37 1007.4
20260504024547 18 295 1.6 1.6 0.00 0.03 0.03 37 1007.2
20260504024043 18 316 1.6 3.2 0.00 0.03 0.03 37 1007.2
20260504023540 18 297 4.8 4.8 0.00 0.03 0.03 37 1007.2
20260504023036 18 277 4.8 6.4 0.00 0.03 0.03 37 1007.1
20260504022532 18 282 4.8 4.8 0.00 0.03 0.03 37 1007.1
20260504022028 18 322 4.8 4.8 0.00 0.03 0.03 37 1007.1
20260504021526 18 304 4.8 6.4 0.00 0.03 0.03 36 1007.1
20260504021023 18 285 3.2 3.2 0.00 0.03 0.03 36 1007.0
20260504020520 18 270 6.4 9.7 0.00 0.03 0.03 36 1007.0
20260504020016 19 281 3.2 4.8 0.00 0.03 0.03 35 1006.9
20260504015513 19 311 1.6 3.2 0.00 0.03 0.03 35 1006.8
20260504015009 20 263 6.4 6.4 0.00 0.03 0.03 35 1006.6
20260504014505 20 302 3.2 4.8 0.00 0.03 0.03 34 1006.6
20260504014002 20 294 4.8 4.8 0.00 0.03 0.03 35 1006.6
20260504013500 20 259 1.6 3.2 0.00 0.03 0.03 34 1006.5
20260504012955 20 278 3.2 4.8 0.00 0.03 0.03 34 1006.6
20260504012454 20 311 3.2 4.8 0.00 0.03 0.03 33 1006.3
20260504011952 20 296 3.2 6.4 0.00 0.03 0.03 33 1006.4
20260504011448 20 298 6.4 9.7 0.00 0.03 0.03 33 1006.4
20260504010944 21 305 6.4 6.4 0.00 0.03 0.03 33 1006.4
20260504010440 21 309 3.2 3.2 0.00 0.03 0.03 32 1006.2
20260504005936 21 284 3.2 4.8 0.00 0.03 0.03 31 1006.0
20260504005433 21 277 6.4 6.4 0.00 0.03 0.03 31 1006.1
20260504004930 22 274 6.4 6.4 0.00 0.03 0.03 30 1006.2
20260504004428 22 307 4.8 6.4 0.00 0.03 0.03 30 1006.1
20260504003925 22 285 4.8 6.4 0.00 0.03 0.03 29 1006.2
20260504003421 22 294 4.8 6.4 0.00 0.03 0.03 29 1006.0
20260504002918 22 273 4.8 4.8 0.00 0.03 0.03 29 1006.1
20260504002415 23 288 3.2 3.2 0.00 0.03 0.03 29 1006.0
20260504001913 23 283 4.8 6.4 0.00 0.03 0.03 28 1006.1
20260504001410 23 340 9.7 12.9 0.00 0.03 0.03 28 1006.0
20260504000906 23 297 6.4 9.7 0.00 0.03 0.03 28 1005.9
20260504000403 23 279 9.7 14.5 0.00 0.03 0.03 28 1006.0
20260503235901 23 321 8.0 9.7 0.00 0.03 0.03 28 1005.7
20260503235359 23 276 9.7 11.3 0.00 0.03 0.03 28 1005.9
20260503234856 23 279 8.0 12.9 0.00 0.03 0.03 28 1005.9
20260503234353 23 285 6.4 6.4 0.00 0.03 0.03 28 1005.8
20260503233851 23 268 6.4 12.9 0.00 0.03 0.03 27 1005.7
20260503233347 24 308 11.3 14.5 0.00 0.03 0.03 27 1005.9
20260503232843 24 340 9.7 14.5 0.00 0.03 0.03 28 1005.7
20260503232341 23 277 20.9 33.8 0.00 0.03 0.03 27 1005.9
20260503231839 24 285 6.4 6.4 0.00 0.03 0.03 28 1005.8
20260503231336 24 325 8.0 11.3 0.00 0.03 0.03 28 1005.9
20260503230832 24 269 6.4 9.7 0.00 0.03 0.03 27 1005.8
20260503230329 24 297 12.9 14.5 0.00 0.03 0.03 27 1005.8
20260503225826 24 283 9.7 14.5 0.00 0.03 0.03 28 1005.9
20260503225322 24 288 11.3 14.5 0.00 0.03 0.03 28 1005.8
20260503224818 25 270 11.3 12.9 0.00 0.03 0.03 28 1005.9
20260503224316 25 268 9.7 12.9 0.00 0.03 0.03 27 1005.9
20260503223814 25 273 6.4 9.7 0.00 0.03 0.03 28 1005.8
20260503223311 24 335 8.0 11.3 0.00 0.03 0.03 28 1005.7
20260503222806 24 285 9.7 14.5 0.00 0.03 0.03 28 1005.7
20260503222305 24 348 6.4 9.7 0.00 0.03 0.03 28 1005.8
20260503221803 24 280 8.0 11.3 0.00 0.03 0.03 26 1006.0
20260503221301 24 109 6.4 12.9 0.00 0.03 0.03 27 1005.9
20260503220757 24 314 17.7 20.9 0.00 0.03 0.03 27 1005.9
20260503220254 24 248 6.4 6.4 0.00 0.03 0.03 26 1005.9
20260503215751 24 308 12.9 16.1 0.00 0.03 0.03 27 1005.7
20260503215248 24 250 9.7 12.9 0.00 0.03 0.03 29 1005.7
20260503214746 24 305 12.9 17.7 0.00 0.03 0.03 29 1005.6
20260503214242 25 240 11.3 14.5 0.00 0.03 0.03 29 1005.6
20260503213740 24 280 14.5 17.7 0.00 0.03 0.03 31 1005.8
20260503213238 25 244 8.0 11.3 0.00 0.03 0.03 31 1005.9
20260503212734 24 268 9.7 16.1 0.00 0.03 0.03 32 1005.8
20260503212232 24 269 9.7 16.1 0.00 0.03 0.03 32 1005.7
20260503211729 23 290 8.0 12.9 0.00 0.03 0.03 32 1006.0
20260503211225 23 290 8.0 11.3 0.00 0.03 0.03 33 1006.0
20260503210721 23 318 9.7 11.3 0.00 0.03 0.03 34 1006.2
20260503210219 23 63 11.3 14.5 0.00 0.03 0.03 33 1006.3
20260503205714 23 250 17.7 20.9 0.00 0.03 0.03 33 1006.4
20260503205210 23 248 8.0 9.7 0.00 0.03 0.03 33 1006.4
20260503204707 23 241 9.7 11.3 0.00 0.03 0.03 34 1006.6
20260503204205 23 285 9.7 11.3 0.00 0.03 0.03 34 1006.5
20260503203701 23 228 14.5 16.1 0.00 0.03 0.03 34 1006.6
20260503203159 23 312 14.5 16.1 0.00 0.03 0.03 35 1006.8
20260503202656 23 289 6.4 11.3 0.00 0.03 0.03 36 1006.8
20260503202154 22 252 19.3 25.7 0.00 0.03 0.03 35 1006.9
20260503201652 23 239 4.8 6.4 0.00 0.03 0.03 35 1006.8
20260503201149 22 249 11.3 14.5 0.00 0.03 0.03 36 1007.2
20260503200645 22 250 3.2 4.8 0.00 0.03 0.03 35 1007.0
20260503200141 22 348 11.3 14.5 0.00 0.03 0.03 36 1007.1
20260503195638 22 263 16.1 17.7 0.00 0.03 0.03 36 1007.2
20260503195135 22 275 22.5 29.0 0.00 0.03 0.03 36 1007.4
20260503194632 22 241 9.7 16.1 0.00 0.03 0.03 36 1007.3
20260503194127 21 57 6.4 9.7 0.00 0.03 0.03 37 1007.5
20260503193625 21 349 17.7 22.5 0.00 0.03 0.03 37 1007.4
20260503193120 21 257 22.5 27.4 0.00 0.03 0.03 37 1007.5
20260503192616 21 52 22.5 37.0 0.00 0.03 0.03 37 1007.8
20260503192112 21 296 4.8 9.7 0.00 0.03 0.03 37 1007.6
20260503191609 22 282 17.7 24.1 0.00 0.03 0.03 36 1007.8
20260503191106 21 292 6.4 9.7 0.00 0.03 0.03 37 1007.8
20260503190603 21 254 19.3 25.7 0.00 0.03 0.03 38 1007.6
20260503190100 21 255 19.3 24.1 0.00 0.03 0.03 37 1007.8
20260503185556 20 194 14.5 17.7 0.00 0.03 0.03 37 1007.9
20260503185056 20 253 9.7 11.3 0.00 0.03 0.03 39 1007.9
20260503184552 20 318 8.0 9.7 0.00 0.03 0.03 39 1008.1
20260503184049 20 264 8.0 9.7 0.00 0.03 0.03 39 1008.3
20260503183545 20 302 11.3 16.1 0.00 0.03 0.03 39 1008.4
20260503183043 20 276 8.0 9.7 0.00 0.03 0.03 40 1008.3
20260503182541 20 273 11.3 12.9 0.00 0.03 0.03 39 1008.4
20260503182039 19 285 9.7 11.3 0.00 0.03 0.03 40 1008.5
20260503181535 19 44 6.4 9.7 0.00 0.03 0.03 40 1008.6
20260503181032 19 121 6.4 11.3 0.00 0.03 0.03 40 1008.5
20260503180529 19 252 12.9 14.5 0.00 0.03 0.03 40 1008.7
20260503180026 18 298 6.4 14.5 0.00 0.03 0.03 40 1008.8
20260503175524 18 314 16.1 22.5 0.00 0.03 0.03 41 1009.1
20260503175020 18 261 14.5 17.7 0.00 0.03 0.03 41 1008.8
20260503174518 18 133 4.8 6.4 0.00 0.03 0.03 41 1009.0
20260503174014 19 45 9.7 12.9 0.00 0.03 0.03 40 1009.1
20260503173509 18 237 17.7 24.1 0.00 0.03 0.03 41 1009.2
20260503173006 18 349 9.7 11.3 0.00 0.03 0.03 41 1009.3
20260503172504 17 260 20.9 27.4 0.00 0.03 0.03 42 1009.2
20260503172001 18 310 19.3 27.4 0.00 0.03 0.03 41 1009.3
20260503171457 17 229 14.5 16.1 0.00 0.03 0.03 42 1009.4
20260503170954 17 270 22.5 30.6 0.00 0.03 0.03 42 1009.5
20260503170450 17 250 20.9 25.7 0.00 0.03 0.03 42 1009.5
20260503150843 13 215 20.9 22.5 0.00 0.03 0.03 53 1010.9
20260503150339 13 214 14.5 16.1 0.00 0.03 0.03 55 1011.1
20260503140303 11 195 14.5 20.9 0.00 0.03 0.03 61 1011.1
20260503131233 9 190 6.4 9.7 0.00 0.00 0.00 70 1013.0
20260503130730 9 217 6.4 11.3 0.00 0.00 0.00 70 1013.2
20260503130227 9 209 4.8 4.8 0.00 0.00 0.00 71 1013.6
20260503120153 9 208 6.4 6.4 0.00 0.00 0.00 64 1014.2
20260503110621 8 249 4.8 4.8 0.00 0.00 0.00 68 1014.4
20260503110118 8 306 1.6 1.6 0.00 0.00 0.00 70 1014.6
20260503090508 8 257 6.4 9.7 0.00 0.00 0.00 58 1014.9
20260503081428 8 223 4.8 4.8 0.00 0.00 0.00 58 1014.9
20260503080925 8 250 4.8 6.4 0.00 0.00 0.00 58 1015.1
20260503080422 8 236 3.2 4.8 0.00 0.00 0.00 58 1015.1
20260503072858 7 309 3.2 3.2 0.00 0.00 0.00 58 1014.9
20260503072355 7 265 3.2 3.2 0.00 0.00 0.00 58 1015.0
20260503071851 7 279 3.2 3.2 0.00 0.00 0.00 58 1015.0
20260503071349 7 228 3.2 3.2 0.00 0.00 0.00 58 1015.0
20260503070844 7 274 3.2 3.2 0.00 0.00 0.00 57 1015.1
20260503070343 7 303 3.2 3.2 0.00 0.00 0.00 57 1015.1
20260503060308 8 277 1.6 3.2 0.00 0.00 0.00 56 1015.7
20260503054755 8 276 3.2 3.2 0.00 0.00 0.00 55 1015.8
20260503054251 8 227 3.2 3.2 0.00 0.00 0.00 54 1015.7
20260503053749 8 283 4.8 6.4 0.00 0.00 0.00 54 1015.7
20260503053248 8 269 6.4 6.4 0.00 0.00 0.00 54 1015.9
20260503052744 8 231 3.2 4.8 0.00 0.00 0.00 55 1015.8
20260503052241 8 213 6.4 6.4 0.00 0.00 0.00 54 1015.8
20260503051736 8 222 6.4 6.4 0.00 0.00 0.00 54 1015.8
20260503051234 8 209 4.8 4.8 0.00 0.00 0.00 54 1015.8
20260503050730 8 289 6.4 9.7 0.00 0.00 0.00 54 1015.9
20260503050226 8 225 4.8 6.4 0.00 0.00 0.00 53 1015.9
20260503045724 8 223 6.4 6.4 0.00 0.00 0.00 53 1015.8
20260503045222 8 228 3.2 4.8 0.00 0.00 0.00 53 1015.9
20260503044718 8 245 6.4 9.7 0.00 0.00 0.00 52 1016.1
20260503044216 8 258 3.2 4.8 0.00 0.00 0.00 52 1016.1
20260503043712 8 224 3.2 3.2 0.00 0.00 0.00 52 1016.1
20260503043210 8 310 3.2 4.8 0.00 0.00 0.00 51 1016.0
20260503042705 9 276 4.8 6.4 0.00 0.00 0.00 51 1016.3
20260503042202 9 243 3.2 4.8 0.00 0.00 0.00 50 1016.2
20260503041658 9 245 6.4 9.7 0.00 0.00 0.00 50 1016.1
20260503041156 9 245 8.0 11.3 0.00 0.00 0.00 49 1016.3